Lubbock Preston Smith International Airport
KLBB : now visible

Airfield :











YOU CAN JOIN US ON...

 
LOGIN :

Register | Disclaimer

   EN    FR    IT 

 









Legend :    VFR   Marginal VFR   IFR   Intensive IFR   Very Intensive IFR
Visi :
Ceiling :
>= 8 km
>= 3000ft
5 to 8 km
1000 to 3000 ft
1500m to 5 km
500 to 1000 ft
800 to 1500m
200 to 500 ft
< 800m
< 200 ft
Symbols :   Thunderstorms  Fog  Heavy snow  Heavy precipitations  Wind > 20 kt






- Airport Elevation : 3282 ft
- IATA code : LBB


KLBB - Lubbock Preston Smith International

CURRENT METAR :
  • 291353Z 19005KT 10SM SCT250 20/13 A3029 RMK AO2 SLP215 T02000128

EXPIRED METARs :
  • 291253Z 35003KT 10SM FEW160 FEW250 18/12 A3029 RMK AO2 SLP212 T01780117
  • 291153Z 33005KT 10SM FEW160 FEW250 14/10 A3028 RMK AO2 SLP211 T01390100 10178 20139 51013

TAF KLBB
Valid from the 29 at 12:00 until the 30 at 12:00 UTC


291124Z 2912/3012 15011KT P6SM FEW250
KZFW FIR / North America



MET'MAP, your aeronautical weather chart ! - Copyright ORBIFLY December 2007 - Disclaimer

ORBIFLY MET'MAP TEAM :

Programming & Development : Alexandra Zaïnal
Concept & original design : Baudouin d'Aumeries
Assistance for programming : Marc-Olivier Méhu
Technical & hardware support : Manuel Goepfert

Contact : metmap@orbifly.com




SOURCES & CREDITS :

   NOAA       Earth
Advisory